Regional Weather Roundup
Issued by NWS

Home | Current Version | Previous Version | Text Only | Print | Product List | Glossary On
Versions: 1 2 3 4 5 6 7 8 9 10 11 12 13 14 15 16 17 18 19 20 21 22 23 24 25 26 27 28 29 30 31 32 33 34 35 36 37 38 39 40 41 42 43 44 45 46 47 48 49 50
000
ASCA42 TJSJ 010610
RWRPR
PUERTO RICO/U.S. VIRGIN ISLANDS HOURLY WEATHER ROUNDUP
NATIONAL WEATHER SERVICE SAN JUAN PR
200 AM AST SUN MAR 01 2015

PRZ001-004-010700-
PUERTO RICO

CITY           SKY/WX    TMP DP  RH WIND       PRES   REMARKS
SAN JUAN LMM   PTCLDY    75  70  83 SE5       30.11F
PONCE          PTCLDY    72  66  83 E6        30.07S
CEIBA          MOCLDY    75  70  83 E8        30.13F
$$

PRZ006-007-010700-
U.S. VIRGIN ISLANDS

CITY           SKY/WX    TMP DP  RH WIND       PRES   REMARKS
$$

HOURLY WEATHER ROUNDUP FOR THE NEWS MEDIA

CITY           SKY/WX    TMP DP  RH WIND       PRES   REMARKS
ORLANDO        CLOUDY    65  64  97 NE5       30.35F
NEW YORK       CLEAR     22   8  55 W6        30.74F WCI  14
NEWARK         PTCLDY    22   2  42 CALM      30.72F
CHICAGO        LGT SNOW  18  14  84 S6        30.45F FOG     WCI  10
HARTFORD       CLEAR      5   1  83 CALM      30.71S
BOSTON         CLEAR     21   2  43 W7        30.71R WCI  12
DALLAS         FRZ RAIN  32  30  93 NE3       30.33F FOG
PHILADELPHIA   FAIR      23   7  50 CALM      30.73F
LOS ANGELES    MOCLDY    55  43  63 CALM      29.91R
WASHINGTON DC  PTCLDY    21   9  59 S5        30.70S WCI  15



USA.gov is the U.S. government's official web portal to all federal, state and local government web resources and services.